www.pogodaiklimat.ru

Погода и климат >> Архив погоды >> Россия >> Чукотка >> Певек


АРХИВ ПОГОДЫ в Певеке

Время (UTC), дата Ветер
(напр.,м/с)
 
Видим.   Явления Облачность Т
(С)
Тd
(С)
f
(%)
Тe
(С)
Тes
(С)
Комфортность P
(гПа)
Po
(гПа)
Тmin
(С)
Tmax
(С)
R
(мм)
R24
(мм)
S
(см)
12 15.01 ЮЗ 3
{6}
10 км слаб. снег {метель} 10/0
[As op]
-31.0 -34.8 69 -41 -41 опасность
обморожения
1024.0 1023.2
15 15.01 ЮЗ 3
{5}
4000 м слаб. снег 10/0
[As op]
-30.2 -33.9 70 -40 -40 опасность
обморожения
1023.9 1023.1
18 15.01 Ю 4
{5}
4000 м слаб. снег 10/0
[As op]
-29.1 -32.4 73 -40 -40 опасность
обморожения
1024.0 1023.2
21 15.01 СЗ 8-10
{10}
2000 м снег {метель} 10/0
[As op]
-27.5 -30.7 74 -42 -42 опасность
обморожения
1022.9 1022.1 -31.0 0.6 6
00 16.01 СЗ 9-10
{11}
500 м сильн. снег {метель} 10/0
[As op]
-26.9 -30.0 75 -42 -42 опасность
обморожения
1022.7 1021.9
03 16.01 СЗ 8-10
{11}
1000 м сильн. снег {метель} 10/0
[As op]
-26.2 -29.2 76 -40 -40 опасность
обморожения
1021.9 1021.1
06 16.01 СЗ 6
{10}
2000 м снег {метель} 10/0
[As op]
-24.1 -27.1 76 -36 -36 опасность
обморожения
1021.0 1020.2
09 16.01 СЗ 4
{9}
4000 м слаб. снег {метель} 10/0
[As op]
-23.5 -26.4 77 -33 -33 опасность
обморожения
1020.7 1019.9 -23.5 3
12 16.01 СЗ 5
{7}
2000 м снег {метель} 10/0
[As op]
-22.8 -25.9 76 -34 -34 опасность
обморожения
1020.1 1019.3
15 16.01 СЗ 6
{8}
2000 м снег {метель} 10/0
[As op]
-22.3 -25.3 76 -34 -34 опасность
обморожения
1019.2 1018.5
18 16.01 СЗ 5
{8}
4000 м слаб. снег {метель} 10/0
[As op]
-22.2 -25.2 77 -33 -33 опасность
обморожения
1019.2 1018.5
21 16.01 З 5
{7}
4000 м слаб. снег {метель} 10/0
[As op]
-22.4 -25.4 76 -33 -33 опасность
обморожения
1019.4 1018.7 -23.5 1 8
00 17.01 Ю 5
{9}
20 км позёмок {снег} 3/0
[Ac trans]
-25.3 -28.3 76 -37 -37 опасность
обморожения
1020.5 1019.7 -25.3
03 17.01 ЮЗ 4
{9}
20 км позёмок 10/0
[Ac trans Ci sp]
-26.1 -29.2 75 -36 -36 опасность
обморожения
1020.7 1019.9
06 17.01 ЮЗ 5
{7}
20 км позёмок 10/0
[Ac trans Ci sp]
-26.0 -29.2 74 -38 -38 опасность
обморожения
1021.4 1020.6
09 17.01 ЮЗ 3
{6}
20 км {метель} 10/0
[Ac und]
-27.1 -30.3 74 -36 -36 опасность
обморожения
1021.3 1020.5 -22.4 0.0
12 17.01 ЮЗ 3
{4}
20 км {метель} 10/0
[Ac trans Ci sp]
-27.9 -31.2 73 -37 -37 опасность
обморожения
1021.2 1020.4
15 17.01 ЮЗ 3
{4}
20 км 10/0
[Ac trans Ci sp]
-27.3 -30.5 74 -36 -36 опасность
обморожения
1020.1 1019.3
18 17.01 ЮЗ 3
{4}
4000 м слаб. снег 10/0
[As op]
-26.7 -29.9 74 -36 -36 опасность
обморожения
1019.4 1018.6
21 17.01 ЮЗ 4
{4}
4000 м слаб. снег 10/0
[As op]
-26.3 -29.5 74 -37 -37 опасность
обморожения
1018.9 1018.1 -27.9 0.9 8
00 18.01 ЮЗ 4
{5}
4000 м слаб. снег {метель} 10/0
[As op]
-25.6 -28.7 75 -36 -36 опасность
обморожения
1018.0 1017.2
03 18.01 ЮЗ 4
{5}
2000 м снег {метель} 10/0
[As op]
-25.3 -28.4 75 -35 -35 опасность
обморожения
1017.4 1016.6
06 18.01 ЮЗ 5
{5}
4000 м слаб. снег {метель} 10/0
[As op]
-25.3 -28.6 74 -37 -37 опасность
обморожения
1017.1 1016.3
09 18.01 ЮЗ 6
{6}
2000 м снег {метель} 10/0
[As op]
-25.3 -28.4 75 -38 -38 опасность
обморожения
1017.3 1016.5 -25.2 2
12 18.01 ЮЗ 5
{7}
4000 м слаб. снег {метель} 10/0
[As op]
-25.7 -28.9 74 -37 -37 опасность
обморожения
1017.9 1017.1
15 18.01 ЮЗ 6
{10}
20 км снежные кристаллы {метель} 10/0
[As op]
-27.2 -30.4 74 -40 -40 опасность
обморожения
1018.7 1017.9
18 18.01 Ю 6
{10}
20 км позёмок {снег} 3/0
[Ac trans]
-27.0 -30.5 72 -40 -40 опасность
обморожения
1019.5 1018.7
21 18.01 Ю 7
{9}
20 км позёмок ясно -26.4 -31.0 65 -40 -40 опасность
обморожения
1020.8 1020.0 -27.4 0.2 8
00 19.01 ЮЗ 6
{9}
20 км позёмок 6/0
[Ac trans Ci sp]
-26.7 -31.6 63 -39 -39 опасность
обморожения
1021.6 1020.8 -27.4
03 19.01 ЮЗ 4
{8}
20 км позёмок 8/0
[Ac und]
-27.0 -31.4 66 -38 -38 опасность
обморожения
1021.1 1020.3
06 19.01 З 1
{5}
20 км {метель} 6/0
[Ci sp]
-28.2 -32.9 64 -32 -32 опасность
обморожения
1021.1 1020.3
09 19.01 ЮЗ 4
{6}
20 км позёмок ясно -28.6 -32.9 66 -40 -40 опасность
обморожения
1021.9 1021.1 -25.7
12 19.01 Ю 5
{6}
20 км позёмок ясно -25.4 -30.8 61 -37 -37 опасность
обморожения
1022.3 1021.5
15 19.01 ЮЗ 8-10
{10}
20 км позёмок 10/0
[Ac und]
-24.2 -28.6 67 -38 -38 опасность
обморожения
1022.3 1021.5
18 19.01 ЮЗ 9-12
{12}
4000 м слаб. снег {метель} 10/0
[As op]
-22.4 -25.9 73 -36 -36 опасность
обморожения
1022.3 1021.6
21 19.01 ЮЗ 9-12
{13}
4000 м слаб. снег {метель} 10/0
[As op]
-23.5 -27.1 72 -38 -38 опасность
обморожения
1023.6 1022.8 -29.3 0.0 11
00 20.01 ЮЗ 8-10
{12}
20 км позёмок {снег} 6/0
[Ac lent Ci sp]
-24.4 -29.0 66 -38 -38 опасность
обморожения
1024.6 1023.8
03 20.01 ЮЗ 6
{11}
20 км позёмок 8/0
[Ac trans Ci sp]
-22.3 -27.9 60 -34 -34 опасность
обморожения
1024.1 1023.4
06 20.01 ЮЗ 5
{8}
20 км позёмок 3/0
[Ci sp]
-25.8 -30.3 66 -37 -37 опасность
обморожения
1025.2 1024.4
09 20.01 Ю 1
{8}
20 км {метель} ясно -25.9 -30.2 67 -30 -30 по сезону 1026.0 1025.2 -21.8 0.0
12 20.01 ЮЗ 1
{7}
20 км {метель} ясно -27.3 -31.1 70 -31 -31 опасность
обморожения
1026.4 1025.6
15 20.01 ЮЗ 1
{3}
20 км ясно -28.6 -32.2 71 -33 -33 опасность
обморожения
1026.1 1025.3
18 20.01 ЮЗ 1
{3}
20 км ясно -31.2 -34.4 73 -35 -35 опасность
обморожения
1024.8 1024.0
21 20.01 СВ 2
{3}
20 км ясно -30.2 -33.6 72 -38 -38 опасность
обморожения
1022.5 1021.7 -32.0 9
00 21.01 С 3
{5}
50 км 6/0
[Ci sp]
-26.5 -30.5 69 -35 -35 опасность
обморожения
1022.4 1021.6
03 21.01 ЮЗ 4
{10}
50 км позёмок 8/0
[Ci sp]
-24.5 -28.9 67 -34 -34 опасность
обморожения
1021.3 1020.5
06 21.01 Ю 3
{7}
20 км {метель} 4/0
[Ci sp]
-24.4 -28.4 69 -33 -33 опасность
обморожения
1023.3 1022.5
09 21.01 ЮЗ 2
{4}
20 км 3/0
[Ci sp]
-25.6 -29.6 69 -32 -32 опасность
обморожения
1023.7 1022.9 -19.0
12 21.01 С 1
{5}
20 км ясно -24.7 -28.3 72 -28 -28 тепло 1024.8 1024.0
15 21.01 З 2
{3}
20 км 10/0
[Ac und]
-23.7 -27.3 72 -30 -30 по сезону 1025.3 1024.5
18 21.01 ЮЗ 2
{3}
10 км слаб. снег 10/0
[As op]
-21.2 -24.7 73 -27 -27 тепло 1026.0 1025.2
21 21.01 ЮЗ 2
{3}
20 км снежные кристаллы 10/0
[As op]
-19.9 -23.5 73 -26 -26 тепло 1026.6 1025.8 -26.9 0.0 9
00 22.01 ЮЗ 2
{3}
20 км снежные кристаллы 10/0
[Ac As]
-19.3 -22.4 76 -25 -25 тепло 1026.7 1025.9
03 22.01 Ю 2
{3}
20 км {снег} 3/0
[Ac trans Ci sp]
-21.4 -24.3 77 -27 -27 тепло 1026.1 1025.3
06 22.01 СВ 3
{4}
20 км {снег} 10/0
[Ac trans Ci sp]
-20.7 -23.9 75 -28 -28 тепло 1026.6 1025.8
09 22.01 штиль 0
{4}
20 км 3/0
[Ci sp]
-24.8 -27.5 78 -25 -25 тепло 1026.4 1025.6 -18.8 0.0

 

Местоположение метеостанции Певек (Чукотка, Россия): широта 69.70 долгота 170.20 высота над уровнем моря 5 м.

В архиве по умолчанию представлена погода в Певеке за последнюю неделю. Архивные данные за месяц целиком и за предыдущие месяцы, начиная с января 2011 года, Вы можете получить, выбрав интересующий диапазон дат из раскрывающегося списка и нажав кнопку "Ввод!".


*Определитесь, кто Вы:
робот инопланетянин человек

Внимание! Время в таблицах - всемирное. Для получения местного времени необходимо прибавить поправку, которая равна 12 ч.

Смотрите также архив погоды в соседних городах и на ближайших метеорологических станциях:

Погода на 21 км (Чукотка, Россия) (26 км)
Погода в Валькаркае (Чукотка, Россия) (50 км)
Погода на Айон Острове (Чукотка, Россия) (92 км)
Погода в Чауне (Чукотка, Россия) (93 км)
Погода в Комсомольской (Чукотка, Россия) (120 км)
Погода в Раучуе (Чукотка, Россия) (145 км)
Погода в Паляваам-Глубокой (Чукотка, Россия) (165 км)
Погода в Майской (Чукотка, Россия) (181 км)
Погода на Мысе Биллингс (Чукотка, Россия) (212 км)
Погода в Билибино (Чукотка, Россия) (238 км)

Пояснения к столбцам:

Ветер - указаны скорость ветра в м/с - средняя за 10 мин, порывы в срок и между сроками (в фигурных скобках) и направление, откуда дует ветер: С - северный, СВ - северо-восточный, В - восточный, ЮВ - юго-восточный, Ю - южный, ЮЗ - юго-западный, З - западный, СЗ - северо-западный.
Видимость - горизонтальная дальность видимости в метрах или километрах. При видимости от 1 до 10 км при отсутствии осадков обычно наблюдается дымка, при ухудшении видимости до 1 км и менее - туман. В сухую погоду видимость может ухудшаться дымом, пылью или мглою.
Явления - указаны атмосферные явления, наблюдавшиеся в срок или в последний час перед сроком; фигурными скобками обозначены явления, наблюдавшиеся между сроками (за 1-3 часа до срока); квадратными скобками обозначены град или гололедные отложения с указанием их диаметра в мм.
Облачность - указаны через наклонную черту общая и нижняя облачность в баллах и высота нижней границы облаков в метрах; квадратными скобками обозначены формы облаков: Ci - перистые, Cs - перисто-слоистые, Cc - перисто-кучевые, Ac - высококучевые, As - высокослоистые, Sc - слоисто-кучевые, Ns - слоисто-дождевые, Cu - кучевые, Cb - кучево-дождевые. Подробнее классификацию облаков см. в Атласе облаков (PDF).
T - Температура воздуха - температура, измеренная на высоте 2 м над землей.
Td - Температура точки росы - температура, при понижении до которой содержащийся в воздухе водяной пар достигнет насыщения.
f - Относительная влажность воздуха - влажноcть воздуха, измеренная на высоте 2 м над землей.
Te - Эффективная температура - температура, которую ощущает одетый по сезону человек в тени. Характеристика душности погоды. При расчете учитывается влияние влажности воздуха и скорости ветра на теплоощущения человека.
Tes - Эффективная температура на солнце - температура, которую ощущает человек, с поправкой на солнечный нагрев. Характеристика знойности погоды. Зависит от высоты солнца над горизонтом, облачности и скорости ветра. Ночью, в пасмурную погоду, а также при ветре 12 м/с и более поправка равна нулю.
P - Атмосферное давление - приведенное к уровню моря атмосферное давление.
Po - Атмосферное давление - измеренное на уровне метеостанции атмосферное давление.
Tmin - Минимальная температура - минимум температуры воздуха на высоте 2 м над землей.
Tmax - Максимальная температура - максимум температуры воздуха на высоте 2 м над землей.
R - Количество осадков - Количество выпавших осадков за период времени, мм. При наведении курсора мыши на число - период времени, за который выпало указанное количество осадков.
R24 - Количество осадков - Количество выпавших осадков за 24 часа, мм.
S - Снежный покров - Высота снежного покрова, см. При наведении курсора мыши на число - состояние снежного покрова и степень покрытия местности в баллах.